TimeEDT,TemperatureF,Dew PointF,Humidity,Sea Level PressureIn,VisibilityMPH,Wind Direction,Wind SpeedMPH,Gust SpeedMPH,PrecipitationIn,Events,Conditions,WindDirDegrees,DateUTC
12:53 AM,59.0,57.9,96,29.97,10.0,Calm,Calm,-,N/A,,Clear,0,2013-10-17 04:53:00
1:53 AM,59.0,59.0,100,29.96,4.0,Calm,Calm,-,N/A,,Clear,0,2013-10-17 05:53:00
2:14 AM,57.2,57.2,100,29.97,1.5,Calm,Calm,-,N/A,,Clear,0,2013-10-17 06:14:00
2:23 AM,57.2,57.2,100,29.96,0.8,Calm,Calm,-,N/A,,Clear,0,2013-10-17 06:23:00
2:29 AM,57.2,57.2,100,29.96,2.5,Calm,Calm,-,N/A,,Clear,0,2013-10-17 06:29:00
2:36 AM,57.2,57.2,100,29.96,5.0,Calm,Calm,-,N/A,,Clear,0,2013-10-17 06:36:00
2:53 AM,57.9,57.9,100,29.95,7.0,Calm,Calm,-,N/A,,Clear,0,2013-10-17 06:53:00
3:44 AM,57.2,57.2,100,29.95,1.8,Calm,Calm,-,N/A,,Clear,0,2013-10-17 07:44:00
3:53 AM,57.9,57.0,97,29.94,3.0,Calm,Calm,-,N/A,,Clear,0,2013-10-17 07:53:00
4:53 AM,57.0,57.0,100,29.95,5.0,Calm,Calm,-,N/A,,Clear,0,2013-10-17 08:53:00
5:53 AM,59.0,57.9,96,29.95,9.0,East,8.1,-,0.01,,Clear,100,2013-10-17 09:53:00
6:53 AM,59.0,57.9,96,29.96,10.0,Calm,Calm,-,N/A,,Clear,0,2013-10-17 10:53:00
7:53 AM,57.9,57.9,100,29.96,1.8,Calm,Calm,-,N/A,,Clear,0,2013-10-17 11:53:00
8:02 AM,57.2,57.2,100,29.97,6.0,Calm,Calm,-,N/A,,Clear,0,2013-10-17 12:02:00
8:53 AM,62.1,60.1,93,29.98,10.0,Calm,Calm,-,N/A,,Clear,0,2013-10-17 12:53:00
9:53 AM,70.0,63.0,78,29.99,10.0,SSW,4.6,-,N/A,,Clear,200,2013-10-17 13:53:00
10:53 AM,75.0,62.1,64,29.99,10.0,SSW,6.9,-,N/A,,Clear,210,2013-10-17 14:53:00
11:53 AM,80.1,62.1,54,29.96,10.0,SSW,6.9,-,N/A,,Clear,210,2013-10-17 15:53:00
12:53 PM,82.0,61.0,49,29.94,10.0,SSW,9.2,-,N/A,,Clear,210,2013-10-17 16:53:00
1:53 PM,84.0,62.1,47,29.91,10.0,SSW,10.4,-,N/A,,Mostly Cloudy,200,2013-10-17 17:53:00
2:53 PM,82.9,62.1,49,29.89,10.0,WSW,9.2,-,N/A,,Overcast,240,2013-10-17 18:53:00
3:53 PM,82.0,63.0,52,29.88,10.0,WSW,5.8,-,N/A,,Overcast,240,2013-10-17 19:53:00
4:53 PM,80.1,64.0,58,29.88,10.0,Calm,Calm,-,N/A,,Overcast,0,2013-10-17 20:53:00
5:53 PM,78.1,64.0,62,29.89,10.0,WNW,8.1,-,N/A,,Overcast,290,2013-10-17 21:53:00
6:53 PM,73.0,68.0,84,29.91,5.0,WNW,8.1,-,0.01,Rain,Rain,290,2013-10-17 22:53:00
7:53 PM,70.0,68.0,93,29.91,10.0,NW,4.6,-,0.05,,Overcast,310,2013-10-17 23:53:00
8:53 PM,69.1,68.0,96,29.91,9.0,West,4.6,-,N/A,,Overcast,280,2013-10-18 00:53:00
9:53 PM,69.1,69.1,100,29.92,7.0,Calm,Calm,-,N/A,,Overcast,0,2013-10-18 01:53:00
10:53 PM,69.1,69.1,100,29.92,7.0,Calm,Calm,-,N/A,,Overcast,0,2013-10-18 02:53:00
11:53 PM,69.1,69.1,100,29.92,6.0,Calm,Calm,-,N/A,,Overcast,0,2013-10-18 03:53:00